Kejimkujik, Nova Scotia

11:19 PM ADT on October 17, 2017 (GMT -0300)
Kejimkujik

Weather History for CWKG - February, 2013

Change the Weather History Date:

Tuesday, February 5, 2013

  Actual Average (CYZX) Record (CYZX)
Temperature  
Mean Temperature 13 °F -  
Max Temperature 20 °F 29 °F 51 °F (2006)
Min Temperature 6 °F 12 °F 0 °F (2000)
Degree Days  
Heating Degree Days 52    
Moisture  
Dew Point 2 °F    
Average Humidity 58    
Maximum Humidity 86    
Minimum Humidity 24    
Precipitation  
Precipitation 0.00 in - - ()
Sea Level Pressure  
Sea Level Pressure 29.89 in    
Wind  
Wind Speed 8 mph ()    
Max Wind Speed 12 mph    
Max Gust Speed 28 mph    
Averages and records for this station are not official NWS values.
T = Trace of Precipitation, MM = Missing Value Source: Averaged Metar Reports

Daily Weather History Graph

Daily Weather History Graph

Search for Another Location

Airport or City:

Trip Planner

Search our weather history database for the weather conditions in past years. The results will help you decide how hot, cold, wet, or windy it might be!

Date:

Astronomy

Feb. 05, 2013 Rise Set
Actual Time 7:34 AM AST 5:36 PM AST
Civil Twilight 7:03 AM AST 6:06 PM AST
Nautical Twilight 6:29 AM AST 6:41 PM AST
Astronomical Twilight 5:55 AM AST 7:15 PM AST
Moon 3:15 AM AST (2/5) 12:45 PM AST (2/5)
Length of Visible Light 11h 03m
Length of Day
10h 01m
Waning Crescent, 27% of the Moon is Illuminated
Feb 5
Waning Crescent
Feb 10
New
Feb 17
First Quarter
Feb 25
Full
Mar 4
Last Quarter

Hourly Weather History & Observations

Time (AST) Temp. Windchill Dew Point Humidity Pressure Visibility Wind Dir Wind Speed Gust Speed Precip Events Conditions
12:00 AM 19.0 °F 6.8 °F 6.4 °F 58% 29.65 in - WNW 11.5 mph 27.6 mph N/A   Unknown
1:00 AM 18.1 °F 5.6 °F 5.2 °F 57% 29.66 in - WNW 11.5 mph 25.3 mph N/A   Unknown
2:00 AM 17 °F - 2 °F 38% 29.69 in - WNW 9.2 mph - -  
2:00 AM 16.7 °F 5.3 °F 2.5 °F 54% 29.69 in - WNW 9.2 mph 18.4 mph N/A   Unknown
3:00 AM 15.8 °F 2.7 °F 2.8 °F 57% 29.72 in - WNW 11.5 mph 20.7 mph N/A   Unknown
4:00 AM 15.1 °F 2.5 °F 3.2 °F 59% 29.74 in - WNW 10.4 mph 19.6 mph N/A   Unknown
5:00 AM 14.0 °F 0.5 °F 2.3 °F 60% 29.78 in - WNW 11.5 mph 21.9 mph N/A   Unknown
6:00 AM 12.7 °F 0.4 °F 3.2 °F 66% 29.81 in - NW 9.2 mph 21.9 mph N/A   Unknown
7:00 AM 12.4 °F 0.9 °F 4.1 °F 69% 29.84 in - WNW 8.1 mph 19.6 mph N/A   Unknown
8:00 AM 12 °F - 3 °F 54% 29.88 in - WNW 6.9 mph - -  
8:00 AM 12.0 °F 1.5 °F 3.0 °F 67% 29.88 in - WNW 6.9 mph - N/A   Unknown
9:00 AM 13.8 °F 1.0 °F 1.8 °F 59% 29.91 in - NW 10.4 mph 18.4 mph N/A   Unknown
10:00 AM 16.0 °F 5.3 °F 0.1 °F 50% 29.94 in - NW 8.1 mph 20.7 mph N/A   Unknown
11:00 AM 16.3 °F 3.4 °F -1.8 °F 45% 29.95 in - WNW 11.5 mph 24.2 mph N/A   Unknown
12:00 PM 17.8 °F 6.6 °F 0.1 °F 46% 29.95 in - NW 9.2 mph 20.7 mph N/A   Unknown
1:00 PM 19.0 °F 8.2 °F 0.7 °F 45% 29.93 in - NW 9.2 mph 19.6 mph N/A   Unknown
2:00 PM 20 °F - -1 °F 24% 29.94 in - WNW 6.9 mph - -  
2:00 PM 20.5 °F 11.7 °F -1.5 °F 38% 29.94 in - WNW 6.9 mph 20.7 mph N/A   Unknown
3:00 PM 20.7 °F 10.2 °F -0.9 °F 39% 29.95 in - WNW 9.2 mph 17.3 mph N/A   Unknown
4:00 PM 19.9 °F 9.3 °F 1.0 °F 44% 29.97 in - WNW 9.2 mph - N/A   Unknown
5:00 PM 17.8 °F 9.6 °F 3.9 °F 55% 29.99 in - WNW 5.8 mph - N/A   Unknown
6:00 PM 15.1 °F 9.4 °F 5.7 °F 66% 30.01 in - WNW 3.5 mph - N/A   Unknown
7:00 PM 10.4 °F - 3.7 °F 74% 30.02 in - NW 1.2 mph - N/A   Unknown
8:00 PM 9 °F - 4 °F 73% 30.02 in - NNE 1.2 mph - -  
8:00 PM 8.6 °F - 4.5 °F 83% 30.02 in - NNE 1.2 mph - N/A   Unknown
9:00 PM 7.0 °F - 3.6 °F 86% 30.03 in - North 1.2 mph - N/A   Unknown
10:00 PM 6.8 °F -2.0 °F 2.7 °F 83% 30.04 in - SSW 4.6 mph - N/A   Unknown
11:00 PM 6.8 °F - 3.2 °F 85% 30.04 in - SSE 2.3 mph - N/A   Unknown